Regional Weather Roundup
Issued by NWS Sterling, VA

Home | Current Version | Previous Version | Text Only | Print | Product List | Glossary Off
Versions: 1 2 3 4 5 6 7 8 9 10 11 12 13 14 15 16 17 18 19 20 21 22 23 24 25 26 27 28 29 30 31 32 33 34 35 36 37 38 39 40 41 42 43 44 45 46 47 48

000
ASUS41 KLWX 251210
RWRLWX

REGIONAL WEATHER ROUNDUP
NATIONAL WEATHER SERVICE BALTIMORE MD/WASHINGTON DC
700 AM EST SUN JAN 25 2015

Note: "FAIR" indicates few or no clouds below 12,000 feet
with no significant weather and/or obstructions to visibility.
 TC=TEMPERATURE CELSIUS

 * =Non NWS site. Station does not report precipitation (e.g. rain,
    snow, etc.), thunder, or fog.

DCZ001-MDZ009-015-VAZ040>042-051-053>054-251300-
WASHINGTON METRO

CITY           SKY/WX    TMP DP  RH WIND       PRES   REMARKS
WASHINGTON NAT CLOUDY    40  27  59 VRB6      29.85R
DULLES         CLOUDY    37  27  67 SW6       29.82R
ANDREWS AFB    CLOUDY    34  27  74 SW6       29.83R
FT BELVOIR     CLOUDY    38  27  62 W5        29.85R
QUANTICO       CLOUDY    37  26  64 W6        29.86R
COLLEGE PARK*  CLOUDY    37  30  75 SW3       29.83R
LEESBURG*      CLOUDY    37  32  81 S5        29.83R
MANASSAS*      CLOUDY    37  28  70 CALM      29.84R
GAITHERSBURG*  CLOUDY    37  27  65 W3        29.84R

$$

MDZ006>007-011-014-251300-
BALTIMORE METRO

CITY           SKY/WX    TMP DP  RH WIND       PRES   REMARKS
BWI AIRPORT    CLOUDY    38  28  67 W8        29.80R
MD SCIENCE CTR   N/A     37  28  70 MISG      29.81R
MARTIN STATE   CLOUDY    37  30  75 SW7       29.82R
ANNAPOLIS      CLOUDY    38  27  64 SW5       29.82R
FORT MEADE*    CLOUDY    34  30  86 SW6       29.83R

$$

MDZ012-015-019>023-251300-
MARYLAND EASTERN SHORE

CITY           SKY/WX    TMP DP  RH WIND       PRES   REMARKS
OCEAN CITY     CLEAR     34  28  79 W8        29.82R WCI  27
SALISBURY      CLOUDY    37  28  70 W6        29.83R
BAY BRIDGE AP*   N/A     37  28  70 SW8       29.83R
CAMBRIDGE*     CLOUDY    37  30  75 W3        29.83R
EASTON*        CLOUDY    37  32  81 W5        29.86R

$$

MDZ017>025-251300-
SOUTHERN MARYLAND

CITY           SKY/WX    TMP DP  RH WIND       PRES   REMARKS
PATUXENT RIVER MOCLDY    35  27  72 SW9       29.85R WCI  28
ST INIGOES     CLOUDY    36  27  69 W7        29.84R
LEONARDTOWN*   CLOUDY    34  28  80 SW3       29.86R

$$

MDZ003>005-251300-
NORTH CENTRAL MARYLAND

CITY           SKY/WX    TMP DP  RH WIND       PRES   REMARKS
FREDERICK*     CLOUDY    39  27  60 SW12      29.82R
HAGERSTOWN APT CLOUDY    37  28  70 SW7       29.76R
WESTMINSTER*   CLOUDY    36  28  75 SW8       29.77R

$$

MDZ501>502-251300-
WESTERN MARYLAND

CITY           SKY/WX    TMP DP  RH WIND       PRES   REMARKS
OAKLAND*       CLOUDY    28 N/A N/A W7        29.68R HAZE
CUMBERLAND*    CLOUDY    37  32  81 S5        29.81R

$$

VAZ025>031-251300-
SHENANDOAH VALLEY

CITY           SKY/WX    TMP DP  RH WIND       PRES   REMARKS
WINCHESTER*    CLOUDY    41  27  56 SW3       29.78S
FRONT ROYAL*   CLOUDY    37  28  70 SW5       29.78S
LURAY*         CLOUDY    36  30  80 S3        29.80R
NEW MARKET*    CLOUDY    34  30  85 CALM      29.79R
STAUNTON*      CLOUDY    37  27  67 S6        29.82R
WAYNESBORO*    CLOUDY    33  26  75 S3        29.80R

$$

WVZ021-048>050-054>055-251300-
EASTERN WEST VIRGINIA PANHANDLE

CITY           SKY/WX    TMP DP  RH WIND       PRES   REMARKS
MARTINSBURG    CLOUDY    39  28  64 S6        29.78R
PETERSBURG*    CLOUDY    41  27  56 W6        29.79R

$$

VAZ036>039-050-251300-
CENTRAL FOOTHILLS

CITY           SKY/WX    TMP DP  RH WIND       PRES   REMARKS
CHARLOTTESVILL PTCLDY    32  25  75 S8        29.82R WCI  25
CULPEPER*      CLOUDY    36  28  75 S3        29.82S
ORANGE*        MOCLDY    32  28  86 S3        29.84F
GORDONSVILLE*  FAIR      28  26  92 CALM      29.83R
WARRENTON*     MOCLDY    36  32  85 CALM      29.82S

$$

VAZ055>057-251300-
NORTH AND CENTRAL PIEDMONT

CITY           SKY/WX    TMP DP  RH WIND       PRES   REMARKS
FREDERICKSBRG* CLOUDY    35  29  79 S6        29.84R
STAFFORD*      CLOUDY    35  26  69 CALM      29.88R

$$

NCZ024-NYZ072-PAZ021-071-VAZ022-071-251300-
OTHER REGIONAL OBSERVATIONS

CITY           SKY/WX    TMP DP  RH WIND       PRES   REMARKS
NEW YORK CITY  CLOUDY    36  24  62 W12G20    29.67R WCI  28
PHILADELPHIA   CLOUDY    36  28  73 SW16      29.75R WCI  26
PITTSBURGH     LGT SNOW  33  31  92 SW6       29.74R FOG
ROANOKE        MOCLDY    37  28  70 CALM      29.87R
RICHMOND       MOCLDY    35  28  75 W6        29.86R
RALEIGH        PTCLDY    30  25  81 CALM      29.91R

$$

ANZ530>537-251300-
MARINE OBSERVATIONS

STATION/POSITION TIME  TEMP    WIND        PRES
                       AIR SEA DIR/SP/G
                 (UTC) (F)     (DEG/KT/KT) (MB)
THOMAS PT LIGHT  1200   37 37  230/ 10/ 11 1011.4R
BALT KEY BRIDGE  1200   38     220/  9/ 11 1009.1R
COVE POINT       1200   36     270/  9/ 11 1010.1R
LEWISETTA        1200   35 37  250/ 10/ 12 1010.7R
SOLOMONS ISLAND  1200      38                N/A
PINEY POINT      1200          270/ 11/ 12   N/A

$$




USA.gov is the U.S. government's official web portal to all federal, state and local government web resources and services.